Weather History for KORS - December, 2012

Change the Weather History Date:

Thursday, December 13, 2012

  Actual Average (KBLI) Record (KBLI)
Temperature  
Mean Temperature 42 °F 38 °F  
Max Temperature 44 °F 44 °F 62 °F (1969)
Min Temperature 39 °F 32 °F 15 °F (1972)
Degree Days  
Heating Degree Days 24 27  
Month to date heating degree days 341  
Cooling Degree Days 0 0  
Month to date cooling degree days 0  
Year to date cooling degree days 42  
Moisture  
Dew Point 37 °F    
Average Humidity 87    
Maximum Humidity 100    
Minimum Humidity 76    
Precipitation  
Precipitation 0.01 in 0.14 in 1.55 in (2001)
Month to date precipitation 1.96  
Year to date precipitation 33.57  
Sea Level Pressure  
Sea Level Pressure 29.91 in    
Wind  
Wind Speed 4 mph (South)    
Max Wind Speed 14 mph    
Max Gust Speed 22 mph    
Visibility 9 miles    
Events Rain    
T = Trace of Precipitation, MM = Missing Value Source: NWS Daily Summary

Daily Weather History Graph

Daily Weather History Graph

Search for Another Location

Airport or City:

Trip Planner

Search our weather history database for the weather conditions in past years. The results will help you decide how hot, cold, wet, or windy it might be!

Date:

Astronomy

Dec. 13, 2012 Rise Set
Actual Time 7:56 AM PST 4:15 PM PST
Civil Twilight 7:19 AM PST 4:52 PM PST
Nautical Twilight 6:39 AM PST 5:32 PM PST
Astronomical Twilight 6:01 AM PST 6:11 PM PST
Moon 8:08 AM PST (12/13) 5:06 PM PST (12/13)
Length of Visible Light 9h 32m
Length of Day
8h 18m
New Moon, 0% of the Moon is Illuminated
Dec 13
New Moon
Dec 19
First Quarter
Dec 28
Full
Jan 4
Last Quarter
Jan 11
New

Hourly Weather History & Observations

Time (PST) Temp. Windchill Dew Point Humidity Pressure Visibility Wind Dir Wind Speed Gust Speed Precip Events Conditions
12:15 AM 41.0 °F - 37.4 °F 87% 30.01 in 10.0 mi Calm Calm - N/A   Overcast
12:35 AM 41.0 °F - 37.4 °F 87% 30.01 in 10.0 mi Calm Calm - N/A   Overcast
12:55 AM 41.0 °F - 37.4 °F 87% 30.01 in 10.0 mi Calm Calm - N/A   Overcast
1:15 AM 41.0 °F - 37.4 °F 87% 30.01 in 10.0 mi Calm Calm - N/A   Overcast
1:35 AM 41.0 °F - 37.4 °F 87% 30.01 in 10.0 mi Calm Calm - N/A   Overcast
1:55 AM 39.2 °F - 37.4 °F 93% 30.01 in 10.0 mi Calm Calm - N/A   Overcast
2:15 AM 39.2 °F - 37.4 °F 93% 30.02 in 10.0 mi Calm Calm - N/A   Overcast
2:35 AM 39.2 °F - 37.4 °F 93% 30.02 in 10.0 mi Calm Calm - N/A   Overcast
3:15 AM 41.0 °F - 37.4 °F 87% 30.03 in 10.0 mi Calm Calm - N/A   Overcast
3:35 AM 41.0 °F - 37.4 °F 87% 30.02 in 10.0 mi Calm Calm - N/A   Overcast
3:55 AM 39.2 °F - 37.4 °F 93% 30.02 in 10.0 mi Calm Calm - N/A   Overcast
4:15 AM 39.2 °F - 37.4 °F 93% 30.02 in 10.0 mi Calm Calm - N/A   Overcast
4:35 AM 39.2 °F - 37.4 °F 93% 30.02 in 10.0 mi Calm Calm - N/A   Overcast
4:55 AM 39.2 °F - 37.4 °F 93% 30.01 in 10.0 mi Calm Calm - N/A   Overcast
5:15 AM 41.0 °F - 39.2 °F 93% 30.00 in 10.0 mi Calm Calm - N/A   Mostly Cloudy
5:35 AM 39.2 °F - 39.2 °F 100% 30.00 in 10.0 mi Calm Calm - N/A   Scattered Clouds
5:55 AM 39.2 °F - 39.2 °F 100% 30.00 in 10.0 mi Calm Calm - N/A   Mostly Cloudy
6:15 AM 39.2 °F - 37.4 °F 93% 30.00 in 10.0 mi North - - N/A   Overcast
6:35 AM 41.0 °F - 37.4 °F 87% 30.00 in 10.0 mi Calm Calm - N/A   Overcast
6:55 AM 39.2 °F - 37.4 °F 93% 30.00 in 10.0 mi Calm Calm - N/A   Overcast
7:35 AM 39.2 °F - 37.4 °F 93% 29.99 in 10.0 mi Calm Calm - N/A   Overcast
7:55 AM 39.2 °F 37.0 °F 37.4 °F 93% 29.98 in 10.0 mi South 3.5 mph - N/A   Overcast
8:15 AM 41.0 °F 38.0 °F 37.4 °F 87% 29.97 in 10.0 mi South 4.6 mph - N/A   Overcast
8:35 AM 41.0 °F 39.0 °F 37.4 °F 87% 29.96 in 10.0 mi South 3.5 mph - N/A   Overcast
8:55 AM 42.8 °F 38.6 °F 37.4 °F 81% 29.96 in 10.0 mi South 6.9 mph - N/A   Overcast
9:15 AM 42.8 °F 38.0 °F 37.4 °F 81% 29.96 in 10.0 mi South 8.1 mph - N/A   Overcast
9:35 AM 42.8 °F 37.0 °F 37.4 °F 81% 29.95 in 10.0 mi South 10.4 mph - N/A   Overcast
9:55 AM 42.8 °F 38.0 °F 37.4 °F 81% 29.95 in 10.0 mi South 8.1 mph - N/A   Overcast
10:15 AM 42.8 °F 38.0 °F 37.4 °F 81% 29.95 in 10.0 mi South 8.1 mph 17.3 mph N/A   Mostly Cloudy
10:35 AM 44.6 °F 39.7 °F 37.4 °F 76% 29.94 in 10.0 mi South 9.2 mph - N/A   Overcast
10:55 AM 44.6 °F 39.7 °F 37.4 °F 76% 29.93 in 10.0 mi South 9.2 mph - N/A   Mostly Cloudy
11:15 AM 42.8 °F 36.2 °F 37.4 °F 81% 29.93 in 10.0 mi South 12.7 mph 19.6 mph N/A   Mostly Cloudy
11:35 AM 42.8 °F 36.6 °F 37.4 °F 81% 29.92 in 10.0 mi South 11.5 mph 20.7 mph N/A   Scattered Clouds
11:55 AM 42.8 °F 36.6 °F 37.4 °F 81% 29.91 in 10.0 mi South 11.5 mph 20.7 mph N/A   Partly Cloudy
12:15 PM 42.8 °F 36.6 °F 37.4 °F 81% 29.91 in 10.0 mi South 11.5 mph 18.4 mph N/A   Partly Cloudy
12:35 PM 42.8 °F 35.8 °F 37.4 °F 81% 29.88 in 10.0 mi South 13.8 mph 21.9 mph N/A   Scattered Clouds
12:55 PM 42.8 °F 36.2 °F 35.6 °F 76% 29.88 in 10.0 mi South 12.7 mph 20.7 mph N/A   Scattered Clouds
1:15 PM 42.8 °F 37.0 °F 35.6 °F 76% 29.87 in 10.0 mi South 10.4 mph 19.6 mph N/A   Scattered Clouds
1:35 PM 42.8 °F 36.6 °F 35.6 °F 76% 29.86 in 10.0 mi South 11.5 mph 19.6 mph N/A   Partly Cloudy
1:55 PM 42.8 °F 37.5 °F 35.6 °F 76% 29.85 in 10.0 mi South 9.2 mph 18.4 mph N/A   Partly Cloudy
2:15 PM 42.8 °F 37.0 °F 35.6 °F 76% 29.85 in 10.0 mi South 10.4 mph 20.7 mph N/A   Clear
2:35 PM 42.8 °F 36.2 °F 35.6 °F 76% 29.85 in 10.0 mi South 12.7 mph 21.9 mph N/A   Clear
3:15 PM 41.0 °F 35.2 °F 37.4 °F 87% 29.84 in 3.0 mi South 9.2 mph 16.1 mph N/A Rain Light Rain
3:35 PM 41.0 °F 36.4 °F 37.4 °F 87% 29.84 in 2.5 mi South 6.9 mph - N/A Rain Light Rain
4:55 PM 41.0 °F 37.1 °F 37.4 °F 87% 29.81 in 5.0 mi South 5.8 mph - N/A Rain Light Rain
5:15 PM 41.0 °F 36.4 °F 37.4 °F 87% 29.80 in 6.0 mi South 6.9 mph - N/A Rain Light Rain
5:35 PM 41.0 °F 36.4 °F 37.4 °F 87% 29.80 in 5.0 mi South 6.9 mph - N/A Rain Light Rain
5:55 PM 41.0 °F 35.2 °F 37.4 °F 87% 29.79 in 6.0 mi South 9.2 mph - N/A   Scattered Clouds
6:15 PM 41.0 °F 35.8 °F 37.4 °F 87% 29.79 in 7.0 mi South 8.1 mph - N/A Rain Light Rain
6:35 PM 41.0 °F 36.4 °F 37.4 °F 87% 29.79 in 5.0 mi South 6.9 mph - N/A Rain Light Rain
6:55 PM 41.0 °F 35.2 °F 39.2 °F 93% 29.78 in 5.0 mi South 9.2 mph - N/A Rain Light Rain
7:15 PM 41.0 °F 35.8 °F 39.2 °F 93% 29.78 in 6.0 mi South 8.1 mph 16.1 mph N/A Rain Light Rain
7:35 PM 41.0 °F 35.2 °F 39.2 °F 93% 29.77 in 7.0 mi South 9.2 mph 16.1 mph N/A Rain Light Rain
7:55 PM 41.0 °F 35.2 °F 37.4 °F 87% 29.77 in 6.0 mi South 9.2 mph 19.6 mph N/A Rain Light Rain
8:15 PM 41.0 °F 33.9 °F 37.4 °F 87% 29.77 in 6.0 mi South 12.7 mph 19.6 mph N/A Rain Light Rain
8:35 PM 39.2 °F 32.5 °F 37.4 °F 93% 29.77 in 7.0 mi South 10.4 mph 20.7 mph N/A Rain Light Rain
8:55 PM 39.2 °F 31.6 °F 37.4 °F 93% 29.77 in 5.0 mi South 12.7 mph 18.4 mph N/A Rain Light Rain
9:15 PM 39.2 °F 31.2 °F 37.4 °F 93% 29.76 in 8.0 mi South 13.8 mph - N/A   Mostly Cloudy
9:35 PM 39.2 °F 32.0 °F 37.4 °F 93% 29.76 in 7.0 mi South 11.5 mph 18.4 mph N/A Rain Light Rain
9:55 PM 39.2 °F 31.6 °F 37.4 °F 93% 29.76 in 6.0 mi South 12.7 mph 17.3 mph N/A Rain Light Rain
11:15 PM 39.2 °F 32.5 °F 37.4 °F 93% 29.76 in 5.0 mi South 10.4 mph 18.4 mph N/A Rain Light Rain
11:55 PM 39.2 °F 32.0 °F 37.4 °F 93% 29.75 in 6.0 mi South 11.5 mph 19.6 mph 0.01 in Rain Light Rain